Eelde, Netherlands

9:52 AM CEST on March 28, 2017 (GMT +0200)
Eelde

Weather History for EHGG - January, 2014

Change the Weather History Date:

Saturday, January 4, 2014

  Actual Average Record
Temperature  
Mean Temperature 44 °F -  
Max Temperature 46 °F 39 °F 53 °F (1999)
Min Temperature 42 °F 29 °F 19 °F (2002)
Degree Days  
Heating Degree Days 21    
Moisture  
Dew Point 39 °F    
Average Humidity 77    
Maximum Humidity 87    
Minimum Humidity 69    
Precipitation  
Precipitation 0.00 in 0.08 in - ()
Sea Level Pressure  
Sea Level Pressure 29.54 in    
Wind  
Wind Speed 15 mph ()    
Max Wind Speed 27 mph    
Max Gust Speed -    
Visibility 8.3 miles    
Events Rain    
Averages and records for this station are not official NWS values.
T = Trace of Precipitation, MM = Missing Value Source: Averaged Metar Reports

Daily Weather History Graph

Daily Weather History Graph

Search for Another Location

Airport or City:

Trip Planner

Search our weather history database for the weather conditions in past years. The results will help you decide how hot, cold, wet, or windy it might be!

Date:

Astronomy

Jan. 04, 2014 Rise Set
Actual Time 8:47 AM CET 4:30 PM CET
Civil Twilight 8:05 AM CET 5:12 PM CET
Nautical Twilight 7:20 AM CET 5:56 PM CET
Astronomical Twilight 6:38 AM CET 6:39 PM CET
Moon 10:09 AM CET (1/4) 9:08 PM CET (1/4)
Length of Visible Light 9h 07m
Length of Day
7h 43m
Waxing Crescent, 13% of the Moon is Illuminated
Jan 4
Waxing Crescent
Jan 8
First Quarter
Jan 16
Full
Jan 24
Last Quarter
Jan 30
New

Hourly Weather History & Observations

Time (CET) Temp. Windchill Dew Point Humidity Pressure Visibility Wind Dir Wind Speed Gust Speed Precip Events Conditions
12:00 AM 44 °F - 38 °F 72% 29.59 in 14 mi SW 20.1 mph - -   Partly Cloudy
12:25 AM 44.6 °F 35.9 °F 37.4 °F 76% 29.56 in 6.2 mi SW 23.0 mph - N/A   Mostly Cloudy
12:55 AM 44.6 °F 35.7 °F 37.4 °F 76% 29.59 in 6.2 mi SW 24.2 mph - N/A   Unknown
1:00 AM 43 °F - 37 °F 74% 29.60 in 15 mi SSW 22.4 mph - -   Partly Cloudy
1:25 AM 42.8 °F 34.0 °F 37.4 °F 81% 29.59 in 6.2 mi SSW 20.7 mph - N/A   Unknown
1:55 AM 42.8 °F 34.5 °F 37.4 °F 81% 29.59 in 6.2 mi SSW 18.4 mph - N/A   Unknown
2:00 AM 44 °F - 38 °F 72% 29.61 in 14 mi SSW 20.1 mph - -   Scattered Clouds
2:25 AM 44.6 °F 35.7 °F 37.4 °F 76% 29.59 in 6.2 mi SW 24.2 mph - N/A   Partly Cloudy
2:55 AM 44.6 °F 36.6 °F 37.4 °F 76% 29.62 in 6.2 mi SW 19.6 mph - N/A   Partly Cloudy
3:00 AM 44 °F - 38 °F 71% 29.63 in 13 mi SSW 22.4 mph - -   Scattered Clouds
3:25 AM 44.6 °F 36.4 °F 37.4 °F 76% 29.62 in 6.2 mi SSW 20.7 mph - N/A   Partly Cloudy
3:55 AM 44.6 °F 35.9 °F 39.2 °F 81% 29.62 in 6.2 mi SW 23.0 mph - N/A   Mostly Cloudy
4:00 AM 44 °F - 40 °F 82% 29.67 in 6 mi SW 26.8 mph - - Rain Drizzle
4:25 AM 44.6 °F 38.1 °F 41.0 °F 87% 29.65 in 6.2 mi SW 13.8 mph - N/A Rain Light Rain
4:55 AM 44.6 °F 39.2 °F 39.2 °F 81% 29.65 in 6.2 mi WSW 10.4 mph - N/A   Mostly Cloudy
5:00 AM 44 °F - 40 °F 79% 29.68 in 11 mi SW 13.4 mph - - Rain Rain
5:25 AM 42.8 °F 35.4 °F 39.2 °F 87% 29.65 in 6.2 mi SSW 15.0 mph - N/A   Scattered Clouds
5:55 AM 42.8 °F 35.4 °F 39.2 °F 87% 29.65 in 6.2 mi South 15.0 mph - N/A   Mostly Cloudy
6:00 AM 43 °F - 39 °F 79% 29.67 in 11 mi South 15.7 mph - -   Partly Cloudy
6:25 AM 42.8 °F 36.2 °F 37.4 °F 81% 29.65 in 6.2 mi SSW 12.7 mph - N/A   Scattered Clouds
6:55 AM 42.8 °F 36.2 °F 37.4 °F 81% 29.65 in 6.2 mi South 12.7 mph - N/A   Mostly Cloudy
7:00 AM 42 °F - 37 °F 77% 29.67 in 12 mi SSW 13.4 mph - -   Partly Cloudy
7:25 AM 42.8 °F 35.4 °F 37.4 °F 81% 29.65 in 6.2 mi SSW 15.0 mph - N/A   Unknown
7:55 AM 42.8 °F 35.4 °F 37.4 °F 81% 29.65 in 6.2 mi South 15.0 mph - N/A   Unknown
8:00 AM 42 °F - 37 °F 78% 29.67 in 11 mi SSW 13.4 mph - -   Scattered Clouds
8:25 AM 42.8 °F 35.4 °F 37.4 °F 81% 29.65 in 6.2 mi South 15.0 mph - N/A   Unknown
8:55 AM 42.8 °F 36.2 °F 37.4 °F 81% 29.65 in 6.2 mi South 12.7 mph - N/A   Unknown
9:00 AM 43 °F - 38 °F 77% 29.67 in 11 mi South 13.4 mph - -   Overcast
9:25 AM 42.8 °F 36.6 °F 37.4 °F 81% 29.65 in 6.2 mi South 11.5 mph - N/A   Unknown
9:55 AM 42.8 °F 36.6 °F 39.2 °F 87% 29.62 in 6.2 mi South 11.5 mph - N/A   Unknown
10:00 AM 43 °F - 38 °F 77% 29.64 in 11 mi South 11.2 mph - -  
10:25 AM 44.6 °F 39.2 °F 39.2 °F 81% 29.62 in 6.2 mi South 10.4 mph - N/A   Unknown
10:55 AM 44.6 °F 38.4 °F 39.2 °F 81% 29.62 in 6.2 mi South 12.7 mph - N/A   Unknown
11:00 AM 45 °F - 39 °F 72% 29.62 in 11 mi South 13.4 mph - -   Partly Cloudy
11:25 AM 46.4 °F 40.4 °F 39.2 °F 76% 29.59 in 6.2 mi South 13.8 mph - N/A   Unknown
11:55 AM 46.4 °F 40.7 °F 39.2 °F 76% 29.59 in 6.2 mi South 12.7 mph - N/A   Unknown
12:00 PM 46 °F - 39 °F 69% 29.59 in 11 mi South 13.4 mph - -   Overcast
12:25 PM 46.4 °F 41.1 °F 39.2 °F 76% 29.56 in 6.2 mi South 11.5 mph - N/A   Unknown
12:55 PM 46.4 °F 40.7 °F 39.2 °F 76% 29.53 in 6.2 mi SSE 12.7 mph - N/A   Unknown
1:00 PM 46 °F - 39 °F 69% 29.55 in 12 mi SSE 11.2 mph - -   Partly Cloudy
1:25 PM 46.4 °F 41.5 °F 39.2 °F 76% 29.53 in 6.2 mi SSE 10.4 mph - N/A   Unknown
1:55 PM 46.4 °F 40.7 °F 39.2 °F 76% 29.50 in 6.2 mi SSE 12.7 mph - N/A   Unknown
2:00 PM 46 °F - 40 °F 71% 29.52 in 11 mi SSE 11.2 mph - -   Scattered Clouds
2:25 PM 46.4 °F 41.1 °F 41.0 °F 81% 29.50 in 6.2 mi SSE 11.5 mph - N/A   Unknown
2:55 PM 46.4 °F 40.4 °F 39.2 °F 76% 29.47 in 6.2 mi SSE 13.8 mph - N/A   Unknown
3:00 PM 46 °F - 40 °F 72% 29.50 in 11 mi SSE 13.4 mph - -   Mostly Cloudy
3:25 PM 46.4 °F 41.1 °F 39.2 °F 76% 29.47 in 6.2 mi SE 11.5 mph - N/A   Unknown
3:55 PM 46.4 °F 41.1 °F 39.2 °F 76% 29.44 in 6.2 mi SE 11.5 mph - N/A   Unknown
4:00 PM 46 °F - 39 °F 69% 29.47 in 12 mi SE 8.9 mph - -   Overcast
4:25 PM 46.4 °F 41.5 °F 39.2 °F 76% 29.44 in 6.2 mi SE 10.4 mph - N/A   Unknown
4:55 PM 44.6 °F 38.8 °F 39.2 °F 81% 29.44 in 6.2 mi SE 11.5 mph - N/A   Unknown
5:00 PM 46 °F - 39 °F 69% 29.45 in 13 mi SE 11.2 mph - -   Overcast
5:25 PM 44.6 °F 38.4 °F 39.2 °F 81% 29.42 in 6.2 mi SSE 12.7 mph - N/A   Unknown
5:55 PM 46.4 °F 40.7 °F 39.2 °F 76% 29.42 in 6.2 mi SE 12.7 mph - N/A   Unknown
6:00 PM 46 °F - 39 °F 69% 29.44 in 16 mi SE 11.2 mph - -   Overcast
6:25 PM 46.4 °F 41.1 °F 39.2 °F 76% 29.42 in 6.2 mi SSE 11.5 mph - N/A   Unknown
6:55 PM 46.4 °F 41.5 °F 39.2 °F 76% 29.42 in 6.2 mi SSE 10.4 mph - N/A   Unknown
7:00 PM 46 °F - 39 °F 70% 29.42 in 18 mi SE 8.9 mph - -   Partly Cloudy
7:25 PM 46.4 °F 41.9 °F 39.2 °F 76% 29.42 in 6.2 mi SSE 9.2 mph - N/A   Unknown
7:55 PM 46.4 °F 41.5 °F 39.2 °F 76% 29.39 in 6.2 mi SSE 10.4 mph - N/A   Unknown
8:00 PM 46 °F - 40 °F 71% 29.41 in 18 mi SSE 11.2 mph - -   Overcast
8:25 PM 46.4 °F 41.5 °F 39.2 °F 76% 29.39 in 6.2 mi SSE 10.4 mph - N/A   Partly Cloudy
8:55 PM 46.4 °F 41.9 °F 39.2 °F 76% 29.39 in 6.2 mi SE 9.2 mph - N/A   Unknown
9:00 PM 46 °F - 39 °F 70% 29.40 in 19 mi SE 8.9 mph - -   Overcast
9:25 PM 44.6 °F 39.7 °F 39.2 °F 81% 29.39 in 6.2 mi SE 9.2 mph - N/A   Partly Cloudy
9:55 PM 46.4 °F 41.9 °F 39.2 °F 76% 29.39 in 6.2 mi SE 9.2 mph - N/A   Overcast
10:00 PM 46 °F - 40 °F 72% 29.39 in 22 mi SE 8.9 mph - -   Overcast
10:25 PM 44.6 °F 40.2 °F 39.2 °F 81% 29.36 in 6.2 mi SE 8.1 mph - N/A   Partly Cloudy
10:55 PM 44.6 °F 40.2 °F 41.0 °F 87% 29.36 in 6.2 mi SE 8.1 mph - N/A   Mostly Cloudy
11:00 PM 45 °F - 40 °F 78% 29.38 in 22 mi SSE 6.7 mph - -   Overcast
11:25 PM 46.4 °F 41.5 °F 41.0 °F 81% 29.36 in 6.2 mi SSE 10.4 mph - N/A   Overcast
11:55 PM 44.6 °F 39.7 °F 41.0 °F 87% 29.39 in 6.2 mi SSE 9.2 mph - N/A   Mostly Cloudy